Roanoke, VA

11:20 AM EST on December 06, 2019 (GMT -0500)
Roanoke Regional-Woodrum

Weather History for KROA - August, 2019

Change the Weather History Date:

Tuesday, August 13, 2019

  Actual Average Record
Temperature  
Mean Temperature 83 °F 76 °F  
Max Temperature 91 °F 86 °F 99 °F (1926)
Min Temperature 74 °F 66 °F 45 °F (1930)
Degree Days  
Heating Degree Days 0 0  
Month to date heating degree days 0 0  
Since 1 June heating degree days 0 11  
Since 1 July heating degree days 0 0  
Cooling Degree Days 18 11  
Month to date cooling degree days 168 145  
Year to date cooling degree days 1151 868  
Since 1 June cooling degree days 872 752  
Growing Degree Days 32 (Base 50)    
Moisture  
Dew Point 71 °F    
Average Humidity 70    
Maximum Humidity 87    
Minimum Humidity 52    
Precipitation  
Precipitation 0.03 in 0.11 in 2.17 in (1949)
Month to date precipitation 0.29 1.49  
Year to date precipitation 27.86 26.06  
Snow  
Snow 0.00 in - - ()
Month to date snowfall 0.0  
Since 1 June snowfall T  
Since 1 July snowfall T  
Snow Depth 0.00 in    
Sea Level Pressure  
Sea Level Pressure 29.85 in    
Wind  
Wind Speed 7 mph (SW)    
Max Wind Speed 22 mph    
Max Gust Speed 29 mph    
Visibility 10 miles    
Events Rain    
T = Trace of Precipitation, MM = Missing Value Source: NWS Daily Summary

Daily Weather History Graph

Daily Weather History Graph

Search for Another Location

Airport or City:

Astronomy

Aug. 13, 2019 Rise Set
Actual Time 6:34 AM EDT 8:14 PM EDT
Civil Twilight 6:06 AM EDT 8:42 PM EDT
Nautical Twilight 5:32 AM EDT 9:16 PM EDT
Astronomical Twilight 4:56 AM EDT 9:51 PM EDT
Moon 7:25 PM EDT (8/13) 4:37 AM EDT (8/13)
Length of Visible Light 14h 36m
Length of Day
13h 40m
Waxing Gibbous, 97% of the Moon is Illuminated
Aug 13
Waxing Gibbous
Aug 15
Full
Aug 23
Last Quarter
Aug 30
New
Sep 5
First Quarter

Hourly Weather History & Observations

Time (EDT) Temp. Heat Index Dew Point Humidity Pressure Visibility Wind Dir Wind Speed Gust Speed Precip Events Conditions
12:54 AM 80.1 °F 83.8 °F 72.0 °F 76% 29.92 in 10.0 mi ESE 4.6 mph - 0.00 in   Mostly Cloudy
1:54 AM 79.0 °F - 72.0 °F 79% 29.91 in 10.0 mi SE 3.5 mph - N/A   Overcast
2:54 AM 78.1 °F - 72.0 °F 81% 29.89 in 10.0 mi SE 3.5 mph - N/A   Overcast
3:54 AM 75.0 °F - 71.1 °F 87% 29.88 in 10.0 mi SSE 4.6 mph - N/A   Clear
4:54 AM 75.0 °F - 71.1 °F 87% 29.87 in 10.0 mi ESE 6.9 mph - N/A   Scattered Clouds
5:54 AM 75.0 °F - 71.1 °F 87% 29.87 in 10.0 mi South 3.5 mph - N/A   Clear
6:54 AM 75.0 °F - 71.1 °F 87% 29.88 in 10.0 mi Calm Calm - N/A   Scattered Clouds
7:54 AM 75.9 °F - 72.0 °F 87% 29.88 in 10.0 mi SSE 4.6 mph - N/A   Scattered Clouds
8:54 AM 79.0 °F - 72.0 °F 79% 29.88 in 10.0 mi SE 4.6 mph - N/A   Overcast
9:54 AM 79.0 °F - 72.0 °F 79% 29.88 in 10.0 mi Variable 3.5 mph - 0.00 in Rain Light Rain
10:54 AM 77.0 °F - 72.0 °F 84% 29.90 in 4.0 mi NNW 4.6 mph - 0.02 in Rain Rain
11:54 AM 82.0 °F 87.4 °F 73.0 °F 74% 29.86 in 10.0 mi SSW 8.1 mph - 0.01 in   Scattered Clouds
12:54 PM 86.0 °F 91.5 °F 71.1 °F 61% 29.84 in 10.0 mi Variable 6.9 mph - 0.00 in   Scattered Clouds
1:54 PM 89.1 °F 93.7 °F 69.1 °F 52% 29.83 in 10.0 mi WSW 12.7 mph - N/A   Scattered Clouds
2:54 PM 87.1 °F 90.6 °F 68.0 °F 53% 29.82 in 10.0 mi WNW 18.4 mph 26.5 mph N/A   Mostly Cloudy
3:54 PM 84.9 °F 89.4 °F 70.0 °F 61% 29.81 in 10.0 mi SW 11.5 mph - N/A   Overcast
4:54 PM 84.0 °F 87.8 °F 69.1 °F 61% 29.80 in 10.0 mi WSW 13.8 mph - N/A   Mostly Cloudy
5:54 PM 82.9 °F 87.0 °F 70.0 °F 65% 29.79 in 10.0 mi WSW 5.8 mph - N/A   Mostly Cloudy
6:54 PM 84.9 °F 89.4 °F 70.0 °F 61% 29.78 in 10.0 mi WSW 9.2 mph - N/A   Scattered Clouds
7:54 PM 82.9 °F 87.0 °F 70.0 °F 65% 29.81 in 10.0 mi WSW 6.9 mph - N/A   Partly Cloudy
8:54 PM 82.9 °F 86.5 °F 69.1 °F 63% 29.83 in 10.0 mi WSW 6.9 mph - N/A   Scattered Clouds
9:54 PM 80.1 °F 83.2 °F 70.0 °F 71% 29.84 in 10.0 mi WSW 11.5 mph - N/A   Scattered Clouds
10:54 PM 78.1 °F - 70.0 °F 76% 29.84 in 10.0 mi West 12.7 mph - N/A   Partly Cloudy
11:54 PM 77.0 °F - 70.0 °F 79% 29.84 in 10.0 mi WSW 6.9 mph - N/A   Clear